Date String (YYYY-MM-DD hh:mm:ss) UTC,Instrument flags,Ambient pressure (hPa),Sample flow (lpm),Bypass flow (lpm),Sample temperature (°C),Ambient temperature (°C),ASC tube jacket temperature (°C),LED temperature (°C),Box temperature (°C),Sample RH (%),Span deviation,Mass concentration (μg/m³),Mass concentration (μg/m³),Mass concentration (μg/m³)
DateTimeUTC,F1_M11,P_M11,Q1_M11,Q2_M11,T1_M11,T2_M11,T3_M11,T4_M11,T5_M11,U1_M11,ZSPAN_M11,X0_M11,X2_M11,X1_M11
2021-11-01 17:00:00,,0832.7,4.99,0.00,22.9,22.1,00.0,32.0,24.8,19.7,0000.0,0002.57,0002.39,0002.31
2021-11-01 17:01:00,,0832.7,5.01,0.00,22.9,22.1,00.0,32.0,24.8,19.8,0000.0,0002.64,0002.40,0002.31
2021-11-01 17:02:00,,0832.7,4.99,0.00,22.9,22.1,00.0,32.0,24.8,19.8,0000.0,0002.83,0002.45,0002.31
2021-11-01 17:03:00,,0832.6,5.00,0.00,22.9,22.2,00.0,32.0,24.8,19.8,0000.0,0002.95,0002.47,0002.32
2021-11-01 17:04:00,,0832.6,5.01,0.00,22.9,22.2,00.0,32.0,24.8,19.8,0000.0,0002.96,0002.48,0002.34
2021-11-01 17:05:00,,0832.5,5.00,0.00,22.9,22.2,00.0,32.0,24.8,19.8,0000.0,0003.03,0002.52,0002.36
2021-11-01 17:06:00,,0832.6,4.98,0.00,22.9,22.2,00.0,32.0,24.8,19.8,0000.0,0003.19,0002.57,0002.39
2021-11-01 17:07:00,,0832.6,5.01,0.00,22.9,22.2,00.0,32.0,24.8,19.8,0000.0,0003.24,0002.61,0002.43
2021-11-01 17:08:00,,0832.6,5.00,0.00,23.0,22.2,00.0,32.0,24.8,19.8,0000.0,0003.41,0002.71,0002.46
2021-11-01 17:09:00,,0832.6,5.01,0.00,22.9,22.1,00.0,32.0,24.8,19.8,0000.0,0003.50,0002.78,0002.52
2021-11-01 17:10:00,,0832.6,4.99,0.00,23.0,22.2,00.0,32.0,24.8,19.8,0000.0,0004.63,0002.84,0002.58
2021-11-01 17:11:00,,0832.6,5.01,0.00,23.0,22.2,00.0,32.0,24.8,19.8,0000.0,0005.12,0002.91,0002.64
2021-11-01 17:12:00,,0832.7,4.99,0.00,23.0,22.2,00.0,32.0,24.8,19.8,0000.0,0005.14,0002.97,0002.72
2021-11-01 17:13:00,,0832.7,4.99,0.00,23.0,22.2,00.0,32.0,24.8,19.8,0000.0,0005.19,0003.00,0002.78
2021-11-01 17:14:00,,0832.7,5.01,0.00,22.9,22.2,00.0,32.0,24.8,19.8,0000.0,0005.19,0003.05,0002.83
2021-11-01 17:15:00,,0832.7,4.99,0.00,23.0,22.2,00.0,32.0,24.8,19.8,0000.0,0005.31,0003.12,0002.89
2021-11-01 17:16:00,,0832.6,4.99,0.00,23.0,22.2,00.0,32.0,24.8,19.8,0000.0,0005.39,0003.16,0002.96
2021-11-01 17:17:00,,0832.7,5.01,0.00,23.0,22.2,00.0,32.0,24.8,19.8,0000.0,0005.35,0003.19,0003.03
2021-11-01 17:18:00,,0832.7,5.00,0.00,23.0,22.2,00.0,32.0,24.8,19.8,0000.0,0005.44,0003.23,0003.09
2021-11-01 17:19:00,,0832.7,4.99,0.00,23.0,22.2,00.0,32.0,24.8,19.7,0000.0,0005.44,0003.25,0003.15
2021-11-01 17:20:00,,0832.7,5.00,0.00,23.0,22.2,00.0,32.0,24.8,19.8,0000.0,0005.54,0003.28,0003.16
2021-11-01 17:21:00,,0832.7,4.99,0.00,23.0,22.2,00.0,32.0,24.8,19.8,0000.0,0004.76,0003.30,0003.18
2021-11-01 17:22:00,,0832.7,5.01,0.00,23.0,22.2,00.0,32.0,24.9,19.7,0000.0,0004.81,0003.35,0003.22
2021-11-01 17:23:00,,0832.7,4.99,0.00,23.0,22.2,00.0,32.0,24.9,19.7,0000.0,0005.00,0003.41,0003.27
2021-11-01 17:24:00,,0832.7,5.00,0.00,23.0,22.2,00.0,32.0,24.9,19.7,0000.0,0004.94,0003.44,0003.30
2021-11-01 17:25:00,,0832.8,4.99,0.00,23.0,22.2,00.0,32.0,24.9,19.7,0000.0,0004.89,0003.48,0003.35
2021-11-01 17:26:00,,0832.7,5.01,0.00,23.0,22.2,00.0,32.0,24.9,19.7,0000.0,0004.99,0003.51,0003.39
2021-11-01 17:27:00,,0832.7,4.99,0.00,23.0,22.2,00.0,32.0,24.9,19.7,0000.0,0005.13,0003.55,0003.43
2021-11-01 17:28:00,,0832.7,5.01,0.00,23.0,22.3,00.0,32.0,24.9,19.7,0000.0,0005.15,0003.59,0003.47
2021-11-01 17:29:00,,0832.8,5.00,0.00,23.0,22.3,00.0,32.0,24.9,19.7,0000.0,0005.21,0003.63,0003.51
2021-11-01 17:30:00,,0832.8,5.00,0.00,23.0,22.3,00.0,32.0,24.9,19.7,0000.0,0005.25,0003.66,0003.54
2021-11-01 17:31:00,,0832.8,5.01,0.00,23.0,22.3,00.0,32.0,24.9,19.7,0000.0,0005.32,0003.73,0003.61
2021-11-01 17:32:00,,0832.8,5.00,0.00,23.0,22.3,00.0,32.0,24.9,19.6,0000.0,0005.46,0003.83,0003.71
2021-11-01 17:33:00,,0832.7,4.99,0.00,23.0,22.3,00.0,32.0,24.9,19.6,0000.0,0004.97,0003.94,0003.81
2021-11-01 17:34:00,,0832.7,5.01,0.00,23.0,22.3,00.0,32.0,24.9,19.5,0000.0,0005.10,0004.05,0003.93
2021-11-01 17:35:00,,0832.7,5.00,0.00,23.0,22.3,00.0,32.0,24.9,19.5,0000.0,0005.20,0004.15,0004.03
2021-11-01 17:36:00,,0832.8,4.99,0.00,23.0,22.3,00.0,32.0,24.9,19.5,0000.0,0005.27,0004.22,0004.11
2021-11-01 17:37:00,,0832.8,5.01,0.00,23.0,22.3,00.0,32.0,24.9,19.5,0000.0,0005.27,0004.29,0004.19
2021-11-01 17:38:00,,0832.8,5.00,0.00,23.1,22.3,00.0,32.0,24.9,19.4,0000.0,0005.24,0004.39,0004.30
2021-11-01 17:39:00,,0832.8,5.00,0.00,23.1,22.3,00.0,32.1,24.9,19.4,0000.0,0005.37,0004.49,0004.40
2021-11-01 17:40:00,,0832.8,5.01,0.00,23.1,22.3,00.0,32.1,24.9,19.4,0000.0,0005.45,0004.56,0004.49
2021-11-01 17:41:00,,0832.8,5.00,0.00,23.1,22.3,00.0,32.1,24.9,19.3,0000.0,0005.62,0004.67,0004.59
2021-11-01 17:42:00,,0832.9,4.99,0.00,23.1,22.3,00.0,32.1,24.9,19.3,0000.0,0005.72,0004.76,0004.68
2021-11-01 17:43:00,,0832.8,5.00,0.00,23.1,22.3,00.0,32.1,24.9,19.3,0000.0,0005.87,0004.79,0004.71
2021-11-01 17:44:00,,0832.8,5.01,0.00,23.1,22.3,00.0,32.1,24.9,19.3,0000.0,0005.86,0004.80,0004.72
2021-11-01 17:45:00,,0832.9,4.99,0.00,23.1,22.3,00.0,32.1,24.9,19.4,0000.0,0005.84,0004.78,0004.71
2021-11-01 17:46:00,,0832.9,5.01,0.00,23.1,22.3,00.0,32.1,24.9,19.5,0000.0,0005.82,0004.77,0004.69
2021-11-01 17:47:00,,0832.8,4.99,0.00,23.1,22.3,00.0,32.1,24.9,19.5,0000.0,0005.96,0004.81,0004.73
2021-11-01 17:48:00,,0832.8,5.01,0.00,23.1,22.3,00.0,32.1,24.9,19.5,0000.0,0006.14,0004.90,0004.80
2021-11-01 17:49:00,,0832.8,4.99,0.00,23.1,22.3,00.0,32.1,24.9,19.5,0000.0,0006.21,0004.93,0004.83
2021-11-01 17:50:00,,0832.8,5.01,0.00,23.1,22.3,00.0,32.1,24.9,19.4,0000.0,0006.23,0004.95,0004.84
2021-11-01 17:51:00,,0832.9,4.99,0.00,23.1,22.3,00.0,32.1,24.9,19.4,0000.0,0006.30,0004.99,0004.87
2021-11-01 17:52:00,,0832.8,5.01,0.00,23.1,22.3,00.0,32.1,24.9,19.4,0000.0,0006.24,0004.98,0004.88
2021-11-01 17:53:00,,0832.7,4.99,0.00,23.1,22.3,00.0,32.1,24.9,19.3,0000.0,0006.21,0004.99,0004.90
2021-11-01 17:54:00,,0832.7,5.01,0.00,23.1,22.3,00.0,32.1,24.9,19.3,0000.0,0006.19,0005.03,0004.93
2021-11-01 17:55:00,,0832.7,5.00,0.00,23.1,22.3,00.0,32.1,24.9,19.2,0000.0,0006.17,0005.06,0004.97
2021-11-01 17:56:00,,0832.8,5.00,0.00,23.1,22.3,00.0,32.1,24.9,19.1,0000.0,0006.20,0005.09,0005.01
2021-11-01 17:57:00,,0832.9,4.99,0.00,23.1,22.3,00.0,32.1,24.9,19.1,0000.0,0006.28,0005.15,0005.07
2021-11-01 17:58:00,,0832.8,5.01,0.00,23.1,22.3,00.0,32.1,24.9,19.0,0000.0,0006.57,0005.20,0005.12
2021-11-01 17:59:00,,0832.9,4.99,0.00,23.1,22.3,00.0,32.1,24.9,19.1,0000.0,0007.29,0005.22,0005.14
